Location: Wildlife_Club
(35.6000°N, 81.4330°W)
Time: 11:06:30
(UTC-04:00)

A-11 Canister half - Pass Details

Date: 30 June 2019
Orbit: 1514 x 1686 km, 47.2° (Epoch: 19 August)

Event Time Altitude Azimuth Distance (km) Brightness Sun altitude
Rises 10:17:15 0° 249° (WSW) 4,932 11.3 46.8°
Reaches altitude 10° 10:20:29 10° 252° (WSW) 3,939 10.9 47.4°
Maximum altitude 10:30:32 64° 333° (NNW) 1,803 10.0 49.5°
Drops below altitude 10° 10:40:19 10° 55° (NE) 3,841 11.7 51.5°
Sets 10:43:28 0° 58° (ENE) 4,805 12.0 52.1°
